Time,TemperatureF,DewpointF,PressureIn,WindDirection,WindDirectionDegrees,WindSpeedMPH,WindSpeedGustMPH,Humidity,HourlyPrecipIn,Conditions,Clouds,dailyrainin,SoftwareType,DateUTC
2013-08-02 00:09:00,83.1,57.0,30.06,East,92,2.0,5.0,41,0.00,,,0.00,weatherlink.com 1.10,2013-08-02 06:09:00,
2013-08-02 00:24:00,82.5,55.0,30.06,South,170,3.0,5.0,39,0.00,,,0.00,weatherlink.com 1.10,2013-08-02 06:24:00,
2013-08-02 00:40:00,82.5,55.0,30.05,South,177,0.0,3.0,39,0.00,,,0.00,weatherlink.com 1.10,2013-08-02 06:40:00,
2013-08-02 00:55:00,81.9,56.0,30.05,WNW,300,1.0,4.0,41,0.00,,,0.00,weatherlink.com 1.10,2013-08-02 06:55:00,
2013-08-02 01:10:00,82.1,56.0,30.05,NNE,26,2.0,3.0,41,0.00,,,0.00,weatherlink.com 1.10,2013-08-02 07:10:00,
2013-08-02 01:26:00,82.0,56.0,30.04,NE,46,0.0,3.0,41,0.00,,,0.00,weatherlink.com 1.10,2013-08-02 07:26:00,
2013-08-02 01:41:00,81.4,56.0,30.04,NNE,32,4.0,4.0,42,0.00,,,0.00,weatherlink.com 1.10,2013-08-02 07:41:00,
2013-08-02 02:11:00,81.2,57.0,30.04,ESE,122,1.0,4.0,43,0.00,,,0.00,weatherlink.com 1.10,2013-08-02 08:11:00,
2013-08-02 02:26:00,80.9,57.0,30.04,SE,127,0.0,2.0,44,0.00,,,0.00,weatherlink.com 1.10,2013-08-02 08:26:00,
2013-08-02 02:42:00,79.9,57.0,30.03,SE,127,0.0,0.0,45,0.00,,,0.00,weatherlink.com 1.10,2013-08-02 08:42:00,
2013-08-02 02:57:00,79.4,57.0,30.03,SE,127,0.0,0.0,47,0.00,,,0.00,weatherlink.com 1.10,2013-08-02 08:57:00,
2013-08-02 03:12:00,78.9,58.0,30.04,SE,127,1.0,2.0,48,0.00,,,0.00,weatherlink.com 1.10,2013-08-02 09:12:00,
2013-08-02 03:27:00,78.5,58.0,30.04,SE,127,1.0,2.0,50,0.00,,,0.00,weatherlink.com 1.10,2013-08-02 09:27:00,
2013-08-02 03:42:00,78.1,58.0,30.03,SE,129,0.0,1.0,50,0.00,,,0.00,weatherlink.com 1.10,2013-08-02 09:42:00,
2013-08-02 03:58:00,78.2,59.0,30.03,SE,130,1.0,3.0,52,0.00,,,0.00,weatherlink.com 1.10,2013-08-02 09:58:00,
2013-08-02 04:13:00,78.2,60.0,30.04,SE,135,6.0,7.0,54,0.00,,,0.00,weatherlink.com 1.10,2013-08-02 10:13:00,
2013-08-02 04:28:00,77.9,61.0,30.04,SSE,153,0.0,7.0,56,0.00,,,0.00,weatherlink.com 1.10,2013-08-02 10:28:00,
2013-08-02 04:43:00,77.1,61.0,30.04,SSE,151,3.0,6.0,57,0.00,,,0.00,weatherlink.com 1.10,2013-08-02 10:43:00,
2013-08-02 04:58:00,77.0,61.0,30.03,SSE,153,3.0,9.0,58,0.00,,,0.00,weatherlink.com 1.10,2013-08-02 10:58:00,
2013-08-02 05:14:00,76.9,61.0,30.04,South,190,0.0,6.0,58,0.00,,,0.00,weatherlink.com 1.10,2013-08-02 11:14:00,
2013-08-02 05:29:00,76.0,61.0,30.04,SE,138,0.0,3.0,60,0.00,,,0.00,weatherlink.com 1.10,2013-08-02 11:29:00,
2013-08-02 05:44:00,76.3,61.0,30.03,SE,138,1.0,2.0,59,0.00,,,0.00,weatherlink.com 1.10,2013-08-02 11:44:00,
2013-08-02 05:59:00,76.1,61.0,30.04,West,279,0.0,3.0,59,0.00,,,0.00,weatherlink.com 1.10,2013-08-02 11:59:00,
2013-08-02 06:14:00,76.3,60.0,30.04,NNE,32,1.0,8.0,57,0.00,,,0.00,weatherlink.com 1.10,2013-08-02 12:14:00,
2013-08-02 06:30:00,76.0,61.0,30.05,East,84,5.0,7.0,60,0.00,,,0.00,weatherlink.com 1.10,2013-08-02 12:30:00,
2013-08-02 06:45:00,75.3,62.0,30.05,NNE,25,3.0,5.0,63,0.00,,,0.00,weatherlink.com 1.10,2013-08-02 12:45:00,
2013-08-02 07:00:00,75.5,62.0,30.06,NW,318,0.0,6.0,63,0.00,,,0.00,weatherlink.com 1.10,2013-08-02 13:00:00,
2013-08-02 07:15:00,76.3,61.0,30.06,NNE,13,2.0,4.0,60,0.00,,,0.00,weatherlink.com 1.10,2013-08-02 13:15:00,
2013-08-02 07:30:00,78.6,62.0,30.06,WNW,297,0.0,4.0,56,0.00,,,0.00,weatherlink.com 1.10,2013-08-02 13:30:00,
2013-08-02 07:46:00,78.5,62.0,30.07,North,5,5.0,7.0,57,0.00,,,0.00,weatherlink.com 1.10,2013-08-02 13:46:00,
2013-08-02 08:01:00,78.7,63.0,30.08,NNW,338,7.0,7.0,58,0.00,,,0.00,weatherlink.com 1.10,2013-08-02 14:01:00,
2013-08-02 08:16:00,79.6,62.0,30.09,NNE,24,5.0,6.0,55,0.00,,,0.00,weatherlink.com 1.10,2013-08-02 14:16:00,
2013-08-02 08:31:00,80.8,62.0,30.09,NE,44,3.0,8.0,53,0.00,,,0.00,weatherlink.com 1.10,2013-08-02 14:31:00,
2013-08-02 08:46:00,81.8,62.0,30.10,ENE,75,5.0,8.0,51,0.00,,,0.00,weatherlink.com 1.10,2013-08-02 14:46:00,
2013-08-02 09:02:00,82.8,61.0,30.10,East,100,6.0,8.0,48,0.00,,,0.00,weatherlink.com 1.10,2013-08-02 15:02:00,
2013-08-02 09:17:00,83.7,61.0,30.09,East,80,6.0,8.0,46,0.00,,,0.00,weatherlink.com 1.10,2013-08-02 15:17:00,
2013-08-02 09:32:00,84.8,61.0,30.10,South,171,3.0,8.0,45,0.00,,,0.00,weatherlink.com 1.10,2013-08-02 15:32:00,
2013-08-02 09:47:00,85.0,61.0,30.10,SSE,157,3.0,4.0,45,0.00,,,0.00,weatherlink.com 1.10,2013-08-02 15:47:00,
2013-08-02 10:02:00,86.2,62.0,30.10,SSE,153,0.0,6.0,44,0.00,,,0.00,weatherlink.com 1.10,2013-08-02 16:02:00,
2013-08-02 10:17:00,87.4,61.0,30.10,East,90,1.0,8.0,42,0.00,,,0.00,weatherlink.com 1.10,2013-08-02 16:17:00,
2013-08-02 10:33:00,88.4,61.0,30.10,SE,140,0.0,7.0,40,0.00,,,0.00,weatherlink.com 1.10,2013-08-02 16:33:00,
2013-08-02 10:48:00,89.7,61.0,30.10,NE,55,2.0,8.0,39,0.00,,,0.00,weatherlink.com 1.10,2013-08-02 16:48:00,
2013-08-02 11:03:00,91.6,62.0,30.10,ENE,74,7.0,9.0,37,0.00,,,0.00,weatherlink.com 1.10,2013-08-02 17:03:00,
2013-08-02 11:18:00,92.1,61.0,30.09,SE,135,0.0,9.0,36,0.00,,,0.00,weatherlink.com 1.10,2013-08-02 17:18:00,
2013-08-02 11:33:00,93.3,61.0,30.09,ENE,59,3.0,10.0,34,0.00,,,0.00,weatherlink.com 1.10,2013-08-02 17:33:00,
2013-08-02 11:49:00,93.7,61.0,30.09,East,92,6.0,7.0,34,0.00,,,0.00,weatherlink.com 1.10,2013-08-02 17:49:00,
2013-08-02 12:04:00,94.6,60.0,30.08,ESE,111,5.0,9.0,32,0.00,,,0.00,weatherlink.com 1.10,2013-08-02 18:04:00,
2013-08-02 12:19:00,95.5,60.0,30.08,NE,46,2.0,6.0,31,0.00,,,0.00,weatherlink.com 1.10,2013-08-02 18:19:00,
2013-08-02 12:35:00,96.4,61.0,30.07,SSE,166,2.0,11.0,31,0.00,,,0.00,weatherlink.com 1.10,2013-08-02 18:35:00,
2013-08-02 12:50:00,95.3,60.0,30.07,SE,132,2.0,7.0,31,0.00,,,0.00,weatherlink.com 1.10,2013-08-02 18:50:00,
2013-08-02 13:05:00,91.3,59.0,30.06,SW,216,3.0,5.0,34,0.00,,,0.00,weatherlink.com 1.10,2013-08-02 19:05:00,
2013-08-02 13:20:00,91.0,59.0,30.06,West,276,4.0,4.0,34,0.00,,,0.00,weatherlink.com 1.10,2013-08-02 19:20:00,
2013-08-02 13:35:00,89.9,59.0,30.05,North,5,8.0,9.0,35,0.00,,,0.00,weatherlink.com 1.10,2013-08-02 19:35:00,
2013-08-02 13:50:00,89.4,61.0,30.05,NNW,336,2.0,9.0,39,0.00,,,0.00,weatherlink.com 1.10,2013-08-02 19:50:00,
2013-08-02 14:06:00,81.5,64.0,30.05,NE,38,6.0,13.0,56,0.10,,,0.10,weatherlink.com 1.10,2013-08-02 20:06:00,
2013-08-02 14:21:00,82.0,62.0,30.04,ESE,108,11.0,18.0,50,0.12,,,0.12,weatherlink.com 1.10,2013-08-02 20:21:00,
2013-08-02 14:36:00,88.9,68.0,30.03,NE,40,6.0,8.0,51,0.12,,,0.12,weatherlink.com 1.10,2013-08-02 20:36:00,
2013-08-02 14:51:00,91.8,62.0,30.02,NE,41,4.0,7.0,37,0.12,,,0.12,weatherlink.com 1.10,2013-08-02 20:51:00,
2013-08-02 15:06:00,94.7,60.0,30.01,NNE,30,4.0,6.0,32,0.01,,,0.12,weatherlink.com 1.10,2013-08-02 21:06:00,
2013-08-02 15:22:00,95.8,57.0,30.00,North,11,1.0,6.0,28,0.00,,,0.12,weatherlink.com 1.10,2013-08-02 21:22:00,
2013-08-02 15:37:00,97.2,61.0,30.00,ENE,67,3.0,7.0,30,0.00,,,0.12,weatherlink.com 1.10,2013-08-02 21:37:00,
2013-08-02 15:52:00,97.0,59.0,29.99,SSE,155,7.0,7.0,29,0.00,,,0.12,weatherlink.com 1.10,2013-08-02 21:52:00,
2013-08-02 16:07:00,94.6,58.0,29.99,SSE,167,4.0,6.0,30,0.00,,,0.12,weatherlink.com 1.10,2013-08-02 22:07:00,
2013-08-02 16:22:00,93.6,59.0,29.98,SSE,167,1.0,5.0,32,0.00,,,0.12,weatherlink.com 1.10,2013-08-02 22:22:00,
2013-08-02 16:37:00,93.0,58.0,29.98,ESE,107,0.0,4.0,31,0.00,,,0.12,weatherlink.com 1.10,2013-08-02 22:37:00,
2013-08-02 16:52:00,92.8,60.0,29.98,ESE,118,2.0,8.0,34,0.00,,,0.12,weatherlink.com 1.10,2013-08-02 22:52:00,
2013-08-02 17:08:00,93.3,57.0,29.98,SSW,205,7.0,12.0,30,0.00,,,0.12,weatherlink.com 1.10,2013-08-02 23:08:00,
2013-08-02 17:23:00,91.7,62.0,29.98,ESE,103,4.0,10.0,37,0.00,,,0.12,weatherlink.com 1.10,2013-08-02 23:23:00,
2013-08-02 17:38:00,89.7,59.0,29.98,SE,146,5.0,9.0,36,0.00,,,0.12,weatherlink.com 1.10,2013-08-02 23:38:00,
2013-08-02 17:53:00,90.1,60.0,29.98,NNE,26,5.0,6.0,37,0.00,,,0.12,weatherlink.com 1.10,2013-08-02 23:53:00,
2013-08-02 18:08:00,87.7,59.0,29.98,NW,314,3.0,5.0,38,0.00,,,0.12,weatherlink.com 1.10,2013-08-03 00:08:00,
2013-08-02 18:24:00,88.8,61.0,29.98,South,181,0.0,6.0,39,0.00,,,0.12,weatherlink.com 1.10,2013-08-03 00:24:00,
2013-08-02 18:39:00,89.4,59.0,29.98,NW,317,1.0,5.0,36,0.00,,,0.12,weatherlink.com 1.10,2013-08-03 00:39:00,
2013-08-02 18:54:00,91.2,58.0,29.98,NNW,330,0.0,5.0,33,0.00,,,0.12,weatherlink.com 1.10,2013-08-03 00:54:00,
2013-08-02 19:09:00,91.6,56.0,29.98,SW,219,10.0,11.0,30,0.00,,,0.12,weatherlink.com 1.10,2013-08-03 01:09:00,
2013-08-02 19:24:00,91.8,55.0,29.98,WSW,243,2.0,8.0,29,0.00,,,0.12,weatherlink.com 1.10,2013-08-03 01:24:00,
2013-08-02 19:40:00,90.4,55.0,29.98,SSW,200,1.0,4.0,30,0.00,,,0.12,weatherlink.com 1.10,2013-08-03 01:40:00,
2013-08-02 19:55:00,89.6,56.0,29.98,SSW,196,1.0,3.0,32,0.00,,,0.12,weatherlink.com 1.10,2013-08-03 01:55:00,
2013-08-02 20:10:00,89.5,56.0,29.98,South,184,1.0,6.0,32,0.00,,,0.12,weatherlink.com 1.10,2013-08-03 02:10:00,
2013-08-02 20:25:00,88.0,54.0,29.99,SW,227,0.0,3.0,32,0.00,,,0.12,weatherlink.com 1.10,2013-08-03 02:25:00,
2013-08-02 20:40:00,87.9,53.0,30.00,SW,234,0.0,5.0,30,0.00,,,0.12,weatherlink.com 1.10,2013-08-03 02:40:00,
2013-08-02 20:55:00,87.1,53.0,30.00,SSW,213,7.0,9.0,31,0.00,,,0.12,weatherlink.com 1.10,2013-08-03 02:55:00,
2013-08-02 21:11:00,87.8,53.0,30.01,SSW,210,0.0,7.0,31,0.00,,,0.12,weatherlink.com 1.10,2013-08-03 03:11:00,
2013-08-02 21:26:00,87.5,54.0,30.02,WSW,237,8.0,10.0,32,0.00,,,0.12,weatherlink.com 1.10,2013-08-03 03:26:00,
2013-08-02 21:56:00,87.0,55.0,30.03,WNW,303,7.0,11.0,34,0.00,,,0.12,weatherlink.com 1.10,2013-08-03 03:56:00,
2013-08-02 22:11:00,86.9,56.0,30.03,NW,309,9.0,18.0,35,0.00,,,0.12,weatherlink.com 1.10,2013-08-03 04:11:00,
2013-08-02 22:26:00,86.7,56.0,30.03,WNW,300,17.0,21.0,35,0.00,,,0.12,weatherlink.com 1.10,2013-08-03 04:26:00,
2013-08-02 22:42:00,86.9,56.0,30.03,WSW,252,11.0,24.0,35,0.00,,,0.12,weatherlink.com 1.10,2013-08-03 04:42:00,
2013-08-02 22:57:00,86.7,56.0,30.04,NW,313,7.0,27.0,35,0.00,,,0.12,weatherlink.com 1.10,2013-08-03 04:57:00,
2013-08-02 23:12:00,86.4,56.0,30.04,WNW,298,9.0,21.0,36,0.00,,,0.12,weatherlink.com 1.10,2013-08-03 05:12:00,
2013-08-02 23:27:00,86.2,56.0,30.03,NW,317,8.0,20.0,36,0.00,,,0.12,weatherlink.com 1.10,2013-08-03 05:27:00,
2013-08-02 23:42:00,85.7,56.0,30.04,West,277,12.0,21.0,37,0.00,,,0.12,weatherlink.com 1.10,2013-08-03 05:42:00,
2013-08-02 23:58:00,85.2,57.0,30.04,WNW,296,8.0,21.0,38,0.00,,,0.12,weatherlink.com 1.10,2013-08-03 05:58:00,